COSMOS 2502

导读

COSMOS 2502(宇宙2502)又名“莲花-S-1”,是独联体(CIS)发射的军用卫星,于2014年12月25日成功发射入轨,国际卫星标识符为2014-086A,北美防空司令部编号40358。该卫星采用圆柱带两翼构型,直径约2.7米,翼展约6.3米,发射质量达7000千克,属于“宇宙”系列卫星,主要承担电子侦察等军事航天任务,延续了苏/俄军事卫星体系的部署序列。

Basic Information
目录编号:
40358
目录名称:
COSMOS 2502
国际标识:
2014-086A
轨道中心:
EARTH
卫星名称:
COSMOS 2502
卫星全名:
--
卫星状态:
在轨 (已飞行4281 天)
发射日期:
2014-12-25 UTC
国别 :
俄罗斯(独联体) (CIS)
星等 :
--
This satellite is enrolled in the Space Conjunction Data Service (SCDS) and the current flight risk assessment level is: High Risk
Orbit Information
数据来源 国际轨道数据
星历时间: 2026-09-14T04:46:30+0800
6小时前
查看轨道信息
半长轴: 7279.454km
偏心率: 0.0005984
轨道倾角: 67.153°
近地点辐角 244.594°
升交点赤经 151.347°
平近点角 115.452°
近地点: 896.96km
远地点: 905.674km
周期: 103.017分钟
每日圈数: 13.978308
Detailed Information
使用方式:
暂无
2D Orbit Map
3D Orbit Map
Orbit Altitude Analysis Chart
Orbit Inclination Analysis Chart
Orbit Comprehensive Analysis Chart
View Comprehensive Chart
Conjunction Data List
Event ID Objects TCA Miss Dist (km) Collision Risk Probability Collision Risk Index (CRI) Action
CDM_260916-115104-035805-489821
2026-09-16T
11:51:47+0000
0.617 km
远距离
1.043356E-4 高风险 0.75
CDM_260916-064202-899204-035822
2026-09-16T
06:42:27+0000
1.405 km
极远距离
5.173188E-6 低风险 0.49
CDM_260915-115004-035805-433724
2026-09-15T
11:50:10+0000
2.865 km
极远距离
1.26818E-6 低风险 0.37
Miss Distance Evolution Trend with All Objects Subscribe to Flight Safety Assessment
Collision Probability Evolution Trend with All Objects Subscribe to Flight Safety Assessment